Content
SEND FEEDBACK

Daily
Averages
Monthly
Summary
United States of America

ST. LOUIS, MISSOURI


Home > North America > United States > Missouri
Elevation: 163 meters     Latitude: 38 45N     Longitude: 090 22W

WEATHER
 
SELECT A DAY
Number of Records: 199,614;   Date Range: 1/1/95 - 10/19/14
 
SHARE

PRINT THIS DATA

[ ← Previous Day ]
WEATHER ALMANAC - 16 MARCH, 2013
[ Next Day → ]
[ °F ]   °C
Weather ElementAverageHighLow
Temperature7.8 °C18.9 °C (1:54 am)3.9 °C (10:54 pm)
Dewpoint3.1 °C7.8 °C (5:54 am)1.1 °C (4:54 pm)
Humidity73.7 %93 % (9:41 pm)43 % (1:54 am)
Barometer1013.5 hPa1018.3 hPa (10:54 pm)1003.4 hPa (1:54 am)
Wind Speed15 km/h27.8 km/h (8:54 am)
Wind Gust38.9 km/h (9:22 am)
Weather ElementAverage
Visibility9.7 km
Wind DirectionSSE (165.9 °)

Weather ElementTotal
Precipitation2.03 mm
Heating Degree Days6.9 (Base 18.3)
Growing Degree Days1.4 (Base 10)
Averaged from 32 records on 16 March, 2013
WEATHER CONDITIONS BREAKOUT
WIND DIRECTION BREAKOUT
WEATHER BY HOUR - 16 MARCH, 2013
[ °F ]   °C
Local TimeTemperatureDewpointHumidityBarometerVisibilityWind DirectionWind SpeedGust SpeedPrecipitationEventsConditions
1:54 AM18.9 °C6.1 °C43 %1003.4 hPa16.1 kmWSW (240°)20.4 km/hClear
2:54 AM18.3 °C6.1 °C45 %1003.4 hPa16.1 kmWSW (240°)20.4 km/hClear
3:54 AM17.8 °C6.1 °C46 %1003.7 hPa16.1 kmWSW (240°)18.5 km/hClear
4:54 AM15 °C6.1 °C55 %1005.1 hPa16.1 kmWest (260°)14.8 km/hClear
5:54 AM13.9 °C7.8 °C67 %1006.4 hPa16.1 kmNW (310°)16.7 km/hClear
6:54 AM11.7 °C6.1 °C69 %1008.1 hPa16.1 kmWNW (300°)11.1 km/hScattered Clouds
7:54 AM10 °C5 °C71 %1009.8 hPa9.7 kmNNW (330°)20.4 km/h29.6 km/hHaze
8:37 AM8 °C4 °C76 %1011.2 hPa6.4 kmNW (320°)22.2 km/hHaze
8:54 AM7.8 °C3.3 °C73 %1012.2 hPa6.4 kmNorth (350°)27.8 km/h37 km/hHaze
9:22 AM6 °C2 °C76 %1013.2 hPa4 kmNW (320°)25.9 km/h38.9 km/hHaze
9:54 AM5.6 °C2.2 °C79 %1013.9 hPa4 kmNorth (350°)20.4 km/hHaze
10:52 AM6 °C2 °C76 %1013.9 hPa4.8 kmNorth (350°)20.4 km/hHaze
10:54 AM6.1 °C1.7 °C74 %1014.2 hPa4.8 kmNorth (10°)14.8 km/hHaze
11:51 AM7 °C2 °C71 %1014.6 hPa9.7 kmNorth (10°)18.5 km/h31.5 km/hHaze
11:54 AM6.7 °C1.7 °C71 %1014.9 hPa9.7 kmNorth (10°)14.8 km/hHaze
12:54 PM7.2 °C1.7 °C68 %1016.3 hPa11.3 kmNorth (360°)14.8 km/hOvercast
1:54 PM7.8 °C1.7 °C66 %1015.6 hPa9.7 kmNorth (350°)14.8 km/hHaze
2:54 PM7.2 °C1.7 °C68 %1015.6 hPa9.7 kmNNE (20°)13 km/hHaze
3:54 PM7.2 °C1.7 °C68 %1015.2 hPa9.7 kmNE (40°)13 km/hHaze
4:54 PM7.2 °C1.1 °C65 %1016.6 hPa9.7 kmNorth (360°)11.1 km/hHaze
5:54 PM6.1 °C1.7 °C74 %1016.6 hPa6.4 kmNorth (10°)13 km/h0 mmRainLight Rain
6:49 PM5 °C2 °C81 %1016.6 hPa6.4 kmNNE (30°)14.8 km/h0.25 mmRainLight Rain
6:54 PM5 °C1.7 °C79 %1016.9 hPa6.4 kmNNE (20°)13 km/h0.25 mmRainLight Rain
7:54 PM4.4 °C2.2 °C86 %1016.9 hPa6.4 kmENE (60°)9.3 km/h0.76 mmRainLight Rain
8:54 PM4.4 °C2.8 °C89 %1017.9 hPa6.4 kmNE (50°)5.6 km/h0.25 mmRainLight Rain
9:41 PM4 °C3 °C93 %1017.3 hPa6.4 kmNE (50°)9.3 km/h0.25 mmRainLight Rain
9:54 PM4.4 °C2.8 °C89 %1017.9 hPa8 kmNE (40°)9.3 km/h0.25 mmOvercast
10:17 PM4 °C3 °C93 %1017.6 hPa8 kmENE (70°)9.3 km/hOvercast
10:45 PM4 °C2 °C87 %1017.6 hPa9.7 kmENE (60°)7.4 km/hOvercast
10:54 PM3.9 °C2.2 °C89 %1018.3 hPa9.7 kmNE (50°)9.3 km/hOvercast
11:09 PM4 °C2 °C87 %1017.3 hPa11.3 kmNE (50°)13 km/hOvercast
11:54 PM4.4 °C1.7 °C83 %1017.9 hPa16.1 kmNE (50°)13 km/hOvercast
Hourly data recorded from KSUS, located 0 kilometers away from St. Louis, Missouri







STORIES FROM OUR PARTNERS